| time (UTC) | temp F | wind direction | speed knots | gust knots | rain 1hr in | rain 24hr in | rain mn in | humidity % | barometer mb |
| 20260502231803 | 44 | 185 | 1.7 | 1.7 | 0.00 | 0.00 | 0.00 | 85 | 1009.6 |
| 20260502225802 | 42 | 209 | 1.7 | 1.7 | 0.00 | 0.00 | 0.00 | 88 | 1009.7 |
| 20260502223802 | 43 | 215 | 0.9 | 0.9 | 0.00 | 0.00 | 0.00 | 88 | 1009.7 |
| 20260502221801 | 44 | 206 | 1.7 | 1.7 | 0.00 | 0.00 | 0.00 | 86 | 1009.6 |
| 20260502215802 | 45 | 174 | 0.9 | 0.9 | 0.00 | 0.00 | 0.00 | 85 | 1009.5 |
| 20260502213802 | 47 | 149 | 2.6 | 2.6 | 0.00 | 0.00 | 0.00 | 82 | 1009.4 |
| 20260502211802 | 47 | 211 | 1.7 | 1.7 | 0.00 | 0.00 | 0.00 | 81 | 1009.4 |
| 20260502205801 | 48 | 171 | 0.0 | 0.0 | 0.00 | 0.00 | 0.00 | 82 | 1009.4 |
| 20260502203802 | 48 | 181 | 0.0 | 0.0 | 0.00 | 0.00 | 0.00 | 81 | 1009.4 |
| 20260502201802 | 47 | 192 | 0.9 | 0.9 | 0.00 | 0.00 | 0.00 | 82 | 1009.4 |
| 20260502195802 | 48 | 170 | 0.0 | 0.9 | 0.00 | 0.00 | 0.00 | 84 | 1009.4 |
| 20260502193802 | 48 | 157 | 0.0 | 0.0 | 0.00 | 0.00 | 0.00 | 82 | 1009.3 |
| 20260502192815 | 49 | 141 | 0.0 | 0.0 | 0.00 | 0.00 | 0.00 | 77 | 1009.3 |
| 20260502191802 | 49 | 141 | 0.0 | 0.0 | 0.00 | 0.00 | 0.00 | 77 | 1009.3 |
| 20260502185802 | 49 | 144 | 0.0 | 0.0 | 0.00 | 0.00 | 0.00 | 76 | 1009.3 |
| 20260502183801 | 50 | 178 | 0.9 | 0.9 | 0.00 | 0.00 | 0.00 | 73 | 1009.3 |
| 20260502181801 | 50 | 185 | 0.0 | 1.7 | 0.00 | 0.00 | 0.00 | 72 | 1009.2 |
| 20260502163801 | 53 | 150 | 1.7 | 1.7 | 0.00 | 0.00 | 0.00 | 62 | 1010.1 |
| 20260502161802 | 52 | 181 | 0.9 | 0.9 | 0.00 | 0.00 | 0.00 | 61 | 1010.1 |
| 20260502151803 | 55 | 242 | 3.5 | 3.5 | 0.00 | 0.00 | 0.00 | 52 | 1010.1 |
| 20260502123802 | 62 | 193 | 1.7 | 2.6 | 0.00 | 0.00 | 0.00 | 43 | 1010.7 |
| 20260502121801 | 64 | 160 | 2.6 | 3.5 | 0.00 | 0.00 | 0.00 | 41 | 1010.6 |
| 20260502115802 | 63 | 140 | 1.7 | 2.6 | 0.00 | 0.00 | 0.00 | 39 | 1010.6 |
| 20260502113803 | 61 | 196 | 0.9 | 1.7 | 0.00 | 0.00 | 0.00 | 41 | 1010.8 |
| 20260502111803 | 61 | 261 | 1.7 | 3.5 | 0.00 | 0.00 | 0.00 | 39 | 1010.7 |
| 20260502105801 | 62 | 149 | 0.9 | 1.7 | 0.00 | 0.00 | 0.00 | 37 | 1010.7 |
| 20260502103801 | 61 | 260 | 3.5 | 5.2 | 0.00 | 0.00 | 0.00 | 36 | 1011.7 |
| 20260502101801 | 62 | 149 | 0.9 | 1.7 | 0.00 | 0.00 | 0.00 | 36 | 1011.7 |
| 20260502065801 | 53 | 185 | 2.6 | 2.6 | 0.00 | 0.00 | 0.00 | 57 | 1013.2 |
| 20260502063802 | 50 | 219 | 3.5 | 5.2 | 0.00 | 0.00 | 0.00 | 61 | 1013.3 |
| 20260502061801 | 48 | 173 | 3.5 | 5.2 | 0.00 | 0.00 | 0.00 | 66 | 1013.4 |
| 20260502055801 | 48 | 232 | 3.5 | 3.5 | 0.00 | 0.00 | 0.00 | 66 | 1013.4 |
| 20260502053801 | 48 | 154 | 0.9 | 0.9 | 0.00 | 0.00 | 0.00 | 67 | 1013.5 |
| 20260502045801 | 46 | 51 | 0.9 | 1.7 | 0.00 | 0.00 | 0.00 | 70 | 1014.5 |
| 20260502043801 | 45 | 225 | 0.0 | 0.9 | 0.00 | 0.00 | 0.00 | 74 | 1014.6 |
| 20260502041801 | 45 | 168 | 0.0 | 0.0 | 0.00 | 0.00 | 0.00 | 74 | 1014.6 |
| 20260502035801 | 44 | 167 | 0.0 | 0.0 | 0.00 | 0.00 | 0.00 | 77 | 1014.7 |
| 20260502034841 | 43 | 162 | 0.9 | 1.7 | 0.00 | 0.00 | 0.00 | 78 | 1015.8 |
| 20260502033832 | 43 | 162 | 0.9 | 1.7 | 0.00 | 0.00 | 0.00 | 78 | 1015.8 |
| 20260502033801 | 42 | 169 | 0.0 | 0.0 | 0.00 | 0.00 | 0.00 | 79 | 1014.8 |
| 20260502031801 | 41 | 164 | 0.0 | 0.0 | 0.00 | 0.00 | 0.00 | 82 | 1014.8 |
| 20260502025801 | 43 | 162 | 0.9 | 1.7 | 0.00 | 0.00 | 0.00 | 78 | 1015.8 |
| 20260502023801 | 42 | 161 | 0.0 | 0.0 | 0.00 | 0.00 | 0.00 | 79 | 1015.9 |
| 20260502021802 | 43 | 159 | 0.0 | 0.0 | 0.00 | 0.00 | 0.00 | 78 | 1015.8 |
| 20260502015802 | 45 | 175 | 0.9 | 1.7 | 0.00 | 0.00 | 0.00 | 75 | 1015.7 |
| 20260502013802 | 46 | 256 | 2.6 | 2.6 | 0.00 | 0.00 | 0.00 | 73 | 1015.7 |
| 20260502011801 | 46 | 186 | 0.9 | 0.9 | 0.00 | 0.00 | 0.00 | 72 | 1015.7 |
| 20260502010805 | 48 | 192 | 1.7 | 1.7 | 0.00 | 0.00 | 0.00 | 70 | 1016.6 |
| 20260502005801 | 47 | 184 | 1.7 | 2.6 | 0.00 | 0.00 | 0.00 | 72 | 1016.6 |
| 20260502003801 | 47 | 164 | 0.0 | 0.9 | 0.00 | 0.00 | 0.00 | 71 | 1016.6 |
| 20260502001802 | 47 | 268 | 2.6 | 3.5 | 0.00 | 0.00 | 0.00 | 70 | 1016.6 |
| 20260501235801 | 48 | 192 | 1.7 | 1.7 | 0.00 | 0.00 | 0.00 | 70 | 1016.6 |
| 20260501235248 | 48 | 195 | 0.0 | 0.9 | 0.00 | 0.00 | 0.00 | 69 | 1016.5 |
| 20260501233801 | 48 | 195 | 0.0 | 0.9 | 0.00 | 0.00 | 0.00 | 69 | 1016.5 |